[[{"header":{"parameterUnit":"m.s-1","parameterCategory":1,"la1":30.2991,"la2":30.254,"lo1":-89.0895,"lo2":-89.0444,"dy":0.0017,"dx":0.0017,"nx":28,"ny":28,"refTime":"2025-09-05T03:00:00:Z","depth":0,"parameterNumber":2,"parameterNumberName":"U-component_of_WINDS"},"data":[0,0,0,0,0,0,0,0,0,0,0,0,0,0,0,0,0,0,0,0,0,0,0,0,0,0,0,0,0,0,0,0,0,0,0,0,0,0,0,0,0,0,0,0,0,0,0,0,0,0,0,0,0,0,0,0,0,0,0.1641,0.1642,0,0.171,0.1711,0.1711,0.1707,0.1706,0.1705,0.1704,0.178,0.1783,0.1786,0,0,0,0,0,0,0,0,0,0,0,0,0,0.1511,0.1514,0.1641,0.1642,0.1643,0.171,0.1711,0.1712,0.1708,0.1706,0.1705,0.1704,0.1779,0.1783,0.1786,0,0,0,0,0,0,0,0,0,0,0,0,0,0.1573,0.1514,0.1641,0.1649,0.165,0.1709,0.1711,0.1712,0.1708,0.1706,0.1705,0.1703,0.1778,0.1782,0.1787,0.1845,0,0,0.18,0.1802,0,0,0,0,0,0,0,0,0.1569,0.1577,0.1647,0.1648,0.165,0.1698,0.1693,0.1757,0.1708,0.1686,0.1704,0.1703,0.1755,0.1761,0.1777,0.1848,0.1851,0.1801,0.1804,0.1805,0.1807,0,0,0,0,0,0,0,0.1565,0.1574,0.1668,0.1648,0.165,0.165,0.1657,0.1705,0.1728,0.1688,0.1688,0.1696,0.1755,0.1773,0.1779,0.1853,0.1801,0.1805,0.1807,0.1809,0.1974,0.1976,0,0,0,0,0,0,0.1558,0.1571,0.1666,0.167,0.1605,0.1654,0.1662,0.1684,0.1728,0.1733,0.1697,0.1695,0.1766,0.1774,0.1782,0.1852,0.1805,0.181,0.1812,0.1972,0.1975,0.1976,0,0,0,0,0,0,0.1555,0.1567,0.1663,0.1621,0.1633,0.1658,0.1683,0.1687,0.1704,0.1734,0.1739,0.171,0.1765,0.1775,0.1829,0.1855,0.1812,0.1816,0.197,0.1973,0.1975,0.1993,0,0,0,0,0,0,0.1552,0.1566,0.1587,0.1621,0.1635,0.1708,0.1685,0.1689,0.1711,0.171,0.1748,0.1753,0.1765,0.1822,0.1833,0.186,0.1819,0.1968,0.1972,0.1975,0.199,0.1996,0.2001,0,0,0,0,0,0.1547,0.159,0.1588,0.1599,0.1662,0.1709,0.1718,0.1728,0.1713,0.1736,0.1755,0.1752,0.185,0.1827,0.184,0.1869,0.1967,0.1971,0.1974,0.1988,0.1995,0.2001,0,0,0,0,0,0,0.1561,0.1595,0.1593,0.1648,0.1675,0.1708,0.1737,0.1736,0.1769,0.1767,0.178,0.1789,0.1842,0.1861,0.1835,0.1927,0.1907,0.1913,0.1913,0.1919,0.1925,0.1919,0.1823,0,0,0,0,0,0.157,0.1604,0.1633,0.1679,0.1692,0.1712,0.1733,0.1739,0.1769,0.1781,0.1804,0.1835,0.1872,0.1897,0.1933,0.1993,0.2001,0.2019,0.2024,0.2028,0.2034,0.2067,0.2075,0.1989,0.1989,0.1989,0,0,0.159,0.1613,0.1634,0.1682,0.1704,0.174,0.1722,0.1762,0.1789,0.1788,0.1839,0.1857,0.1892,0.1948,0.1974,0.1965,0.2059,0.2033,0.2036,0.204,0.2072,0.208,0.2087,0.1992,0.1991,0.1991,0,0,0.1645,0.1665,0.1705,0.1727,0.176,0.1773,0.1782,0.1815,0.1826,0.1877,0.1877,0.1911,0.1975,0.2,0.2021,0.2084,0.2083,0.2095,0.2123,0.2155,0.2162,0.2168,0.219,0.2198,0.2101,0.2101,0.2101,0,0.1666,0.1719,0.1727,0.1766,0.1788,0.1786,0.1828,0.1849,0.1893,0.1908,0.1897,0.1977,0.2001,0.2063,0.2078,0.2095,0.2107,0.2091,0.216,0.2166,0.2172,0.2193,0.2202,0.2102,0.2102,0.2102,0.2102,0,0.1743,0.178,0.1809,0.1849,0.1874,0.1914,0.193,0.1954,0.1958,0.1972,0.2024,0.2052,0.2093,0.2108,0.2113,0.2171,0.2165,0.2156,0.2137,0.2181,0.2202,0.221,0.2104,0.2104,0.2103,0.2103,0,0,0.181,0.1852,0.1863,0.1881,0.1916,0.1946,0.1986,0.2025,0.2046,0.2076,0.2111,0.2164,0.2156,0.218,0.2188,0.2216,0.2264,0.2204,0.2205,0.2214,0.233,0.2336,0.2345,0.2263,0.2264,0.2266,0.2327,0,0.1868,0.1938,0.1946,0.2009,0.2043,0.2042,0.2077,0.2104,0.2118,0.215,0.2167,0.2204,0.2191,0.2205,0.2233,0.2252,0.2287,0.2248,0.2297,0.2298,0.2288,0.2356,0.2363,0.242,0.2335,0.2336,0.2337,0,0.1946,0.1976,0.2041,0.2071,0.2086,0.2118,0.2153,0.2184,0.2214,0.2223,0.2248,0.2252,0.2295,0.2272,0.2333,0.2305,0.2326,0.2338,0.2341,0.2346,0.2321,0.2364,0.2438,0.2446,0.235,0.2349,0.2348,0,0.1988,0.2045,0.2091,0.2107,0.2143,0.2165,0.2181,0.221,0.2232,0.2264,0.2279,0.2316,0.2337,0.2366,0.238,0.2362,0.2439,0.2418,0.2448,0.2448,0.2465,0.2464,0.2544,0.2478,0.2477,0.2477,0.2477,0,0.2053,0.2093,0.211,0.2139,0.2184,0.2194,0.2239,0.2255,0.228,0.2313,0.2314,0.2345,0.2361,0.2395,0.2406,0.2454,0.2464,0.2472,0.2475,0.2472,0.2471,0.2486,0.2483,0.248,0.2479,0.2479,0.2478,0,0.2107,0.2121,0.2171,0.22,0.2209,0.2241,0.2267,0.2295,0.2308,0.235,0.236,0.2382,0.2421,0.2438,0.2487,0.2494,0.255,0.2549,0.2539,0.254,0.2569,0.2566,0.2662,0.2675,0.26,0.2601,0.2601,0,0.2148,0.2179,0.2211,0.2232,0.2248,0.2282,0.2305,0.2315,0.2339,0.2375,0.2399,0.2438,0.247,0.2533,0.2554,0.2592,0.2593,0.2624,0.2599,0.2595,0.2593,0.2591,0.2595,0.2628,0.2629,0.263,0.263,0,0.2219,0.2223,0.2255,0.2288,0.2314,0.2342,0.2368,0.2386,0.2401,0.2428,0.2467,0.2491,0.254,0.2579,0.2618,0.2636,0.2636,0.2638,0.2647,0.2645,0.2637,0.2642,0.2552,0.2636,0.2635,0.2635,0.2635,0.2634,0.2268,0.2295,0.2321,0.2356,0.2377,0.2401,0.2429,0.2445,0.2478,0.2517,0.2522,0.2564,0.2593,0.2644,0.2664,0.2698,0.2691,0.2704,0.2707,0.271,0.2712,0.2631,0.2706,0.2705,0.2705,0.2705,0.2705,0,0.2339,0.2355,0.2387,0.2423,0.2451,0.2446,0.2475,0.2499,0.2535,0.2562,0.2592,0.2638,0.2675,0.2698,0.2736,0.2759,0.276,0.2769,0.2768,0.2772,0.2717,0.2705,0.2767,0.2767,0.2767,0.2767,0.2767,0.2767,0.2379,0.2424,0.2432,0.2487,0.2504,0.2544,0.2561,0.2584,0.2605,0.2655,0.2685,0.2699,0.2725,0.2764,0.2799,0.2805,0.2819,0.2828,0.2834,0.2782,0.2776,0.277,0.2759,0.2831,0.2831,0.2886,0.2886,0.2887]},{"header":{"parameterUnit":"m.s-1","parameterCategory":1,"la1":30.2991,"la2":30.254,"lo1":-89.0895,"lo2":-89.0444,"dy":0.0017,"dx":0.0017,"nx":28,"ny":28,"refTime":"2025-09-05T03:00:00:Z","depth":0,"parameterNumber":3,"parameterNumberName":"V-component_of_WINDS"},"data":[0,0,0,0,0,0,0,0,0,0,0,0,0,0,0,0,0,0,0,0,0,0,0,0,0,0,0,0,0,0,0,0,0,0,0,0,0,0,0,0,0,0,0,0,0,0,0,0,0,0,0,0,0,0,0,0,0,0,1.4684,1.4684,0,1.4725,1.4725,1.4726,1.4704,1.4703,1.4702,1.4701,1.4741,1.4743,1.4745,0,0,0,0,0,0,0,0,0,0,0,0,0,1.4583,1.4585,1.4684,1.4685,1.4685,1.4725,1.4725,1.4726,1.4705,1.4703,1.4702,1.4701,1.4741,1.4743,1.4746,0,0,0,0,0,0,0,0,0,0,0,0,0,1.4625,1.4585,1.4684,1.4679,1.4679,1.4725,1.4725,1.4726,1.4705,1.4703,1.4702,1.47,1.474,1.4743,1.4746,1.4798,0,0,1.4755,1.4757,0,0,0,0,0,0,0,0,1.4623,1.4629,1.4679,1.468,1.468,1.4708,1.4704,1.475,1.4705,1.4695,1.4701,1.4699,1.4731,1.4735,1.4746,1.48,1.4801,1.4756,1.4758,1.4759,1.476,0,0,0,0,0,0,0,1.462,1.4627,1.47,1.468,1.468,1.4673,1.4678,1.4713,1.4722,1.4696,1.4694,1.47,1.4731,1.4743,1.4747,1.4802,1.4756,1.4758,1.476,1.4761,1.4893,1.4894,0,0,0,0,0,0,1.4618,1.4625,1.4699,1.4701,1.4647,1.4677,1.4681,1.47,1.4721,1.4723,1.4701,1.4699,1.4739,1.4743,1.4748,1.4806,1.4759,1.4762,1.4764,1.4891,1.4893,1.4895,0,0,0,0,0,0,1.4616,1.4625,1.4697,1.4663,1.4671,1.468,1.4702,1.4702,1.4714,1.4725,1.4726,1.4712,1.4738,1.4744,1.4784,1.4807,1.4763,1.4766,1.4889,1.4892,1.4894,1.4924,0,0,0,0,0,0,1.4613,1.4624,1.4645,1.4663,1.4673,1.4734,1.4703,1.4704,1.472,1.4717,1.4736,1.4738,1.4737,1.478,1.4787,1.4811,1.4768,1.4887,1.489,1.4893,1.4921,1.4928,1.4933,0,0,0,0,0,1.4609,1.4653,1.4647,1.4656,1.47,1.4736,1.4741,1.474,1.4722,1.4742,1.4748,1.4737,1.4804,1.4784,1.4792,1.4817,1.4886,1.489,1.4893,1.4919,1.4926,1.4933,0,0,0,0,0,0,1.4639,1.4656,1.4649,1.47,1.4716,1.4732,1.4758,1.4749,1.4771,1.4767,1.4764,1.4768,1.4809,1.4818,1.4795,1.4865,1.4842,1.4847,1.4858,1.4866,1.4871,1.4867,1.4771,0,0,0,0,0,1.4651,1.468,1.4693,1.4736,1.4745,1.475,1.4765,1.4762,1.4779,1.4786,1.4795,1.4811,1.4835,1.4851,1.4874,1.4922,1.4924,1.4943,1.4949,1.4954,1.4958,1.4979,1.4986,1.4907,1.4907,1.4907,0,0,1.4678,1.469,1.4709,1.4742,1.4755,1.4782,1.4756,1.4787,1.4806,1.4791,1.4828,1.4835,1.4852,1.4895,1.4915,1.4903,1.498,1.4958,1.4962,1.4964,1.4983,1.4991,1.4997,1.4909,1.4909,1.4909,0,0,1.4738,1.4753,1.4788,1.48,1.4818,1.482,1.4829,1.4845,1.4848,1.4886,1.4873,1.4895,1.4938,1.4949,1.496,1.5019,1.5008,1.5027,1.5056,1.5077,1.5083,1.5088,1.5105,1.5112,1.5031,1.5031,1.5031,0,1.4768,1.481,1.4807,1.4838,1.4851,1.4837,1.4871,1.4882,1.4907,1.4916,1.4903,1.4952,1.4963,1.5006,1.502,1.5031,1.5037,1.5024,1.5082,1.5088,1.5093,1.5109,1.5116,1.5033,1.5033,1.5033,1.5032,0,1.4843,1.4871,1.4898,1.492,1.4936,1.4969,1.4969,1.4985,1.498,1.4982,1.5018,1.503,1.5053,1.5063,1.506,1.5104,1.5096,1.5083,1.5059,1.5102,1.5117,1.5124,1.5036,1.5035,1.5034,1.5034,0,0,1.4926,1.4943,1.4953,1.496,1.4977,1.4998,1.5027,1.5049,1.5061,1.5078,1.51,1.5134,1.512,1.5133,1.513,1.5148,1.5188,1.5132,1.5132,1.5139,1.5233,1.5241,1.5249,1.5181,1.5183,1.5184,1.523,0,1.4984,1.5036,1.5032,1.508,1.5103,1.5088,1.5113,1.5125,1.5127,1.5146,1.5148,1.517,1.5153,1.5159,1.5177,1.518,1.5207,1.5177,1.5199,1.52,1.5193,1.5257,1.5267,1.5311,1.5237,1.5238,1.5239,0,1.5061,1.5077,1.5127,1.5135,1.5145,1.5168,1.5184,1.5203,1.5214,1.5214,1.5226,1.5218,1.5245,1.5221,1.5255,1.5234,1.5243,1.5245,1.5247,1.5247,1.5221,1.5256,1.5325,1.5331,1.5249,1.5248,1.5247,0,1.5111,1.5146,1.5179,1.5186,1.5198,1.5213,1.5219,1.5228,1.524,1.5254,1.5261,1.5278,1.5287,1.53,1.5296,1.528,1.5329,1.5306,1.5327,1.5327,1.5338,1.5337,1.5406,1.5348,1.5348,1.5348,1.5347,0,1.5175,1.5205,1.52,1.5221,1.5252,1.5246,1.5277,1.5281,1.5288,1.5307,1.5295,1.5313,1.5307,1.5324,1.5321,1.5347,1.5352,1.535,1.5349,1.535,1.535,1.5355,1.535,1.5349,1.5349,1.5349,1.5348,0,1.5236,1.5235,1.5269,1.5276,1.5278,1.53,1.5305,1.5323,1.5322,1.5346,1.5351,1.535,1.5368,1.5365,1.5386,1.5384,1.5415,1.5412,1.5412,1.541,1.543,1.5426,1.5502,1.551,1.5449,1.545,1.5451,0,1.5277,1.5299,1.5307,1.5317,1.5323,1.5342,1.5353,1.5347,1.5358,1.5369,1.5384,1.5401,1.5414,1.5443,1.5444,1.5458,1.5453,1.5478,1.5455,1.5454,1.5449,1.5447,1.5447,1.5482,1.5483,1.5483,1.5484,0,1.5346,1.5343,1.5359,1.5373,1.5386,1.5397,1.5407,1.5417,1.5411,1.5424,1.5441,1.5451,1.547,1.5486,1.5498,1.5502,1.5491,1.5491,1.5496,1.5497,1.5494,1.5492,1.5421,1.5489,1.5489,1.5488,1.5488,1.5488,1.5396,1.5413,1.5419,1.5436,1.5442,1.5451,1.5466,1.5466,1.5481,1.5495,1.5491,1.5509,1.5515,1.5531,1.5536,1.5549,1.554,1.5548,1.555,1.5551,1.5552,1.5494,1.5552,1.5552,1.5552,1.5552,1.5551,0,1.5462,1.5464,1.548,1.5492,1.5504,1.5492,1.5501,1.5512,1.5529,1.5535,1.5547,1.5565,1.5579,1.5579,1.5592,1.5602,1.5597,1.5605,1.5603,1.5603,1.5561,1.5554,1.5609,1.5609,1.5609,1.5609,1.5609,1.5609,1.5497,1.5524,1.552,1.5548,1.555,1.5568,1.5574,1.558,1.5585,1.5605,1.5616,1.5616,1.5619,1.5631,1.5642,1.5641,1.5645,1.5655,1.5652,1.5613,1.5607,1.5601,1.5594,1.5656,1.5656,1.5692,1.5693,1.5693]}]]